Location: Melita
(38.4566°N, 122.6369°W)
Time: 09:51:57
(UTC+00:00)

SKYMED 2 - Pass Details

Date: 24 January 2020
Orbit: 621 x 623 km, 97.9° (Epoch: 17 February)

Event Time Altitude Azimuth Distance (km) Brightness Sun altitude
Rises 13:39:38 0° 175° (S) 2,888 7.2 -20.0°
Reaches altitude 10° 13:41:50 10° 179° (S) 1,986 6.3 -19.6°
Maximum altitude 13:46:06 61° 259° (W) 712 3.5 -18.8°
Enters shadow 13:48:51 22° 334° (NNW) 1,386 5.0 -18.3°
